Tracking 19976 objects as of 15-Nov-2019
Live streaming from Space Station
objects crossing your sky now

NOAA 16 DEB

Track NOAA 16 DEB now!
10-day predictions


NORAD ID: 41162
Int'l Code: 2000-055CV
Perigee: 840.1 km
Apogee: 894.2 km
Inclination: 98.8 °
Period: 102.1 minutes
Semi major axis: 7238 km
RCS: Unknown
Launch date: September 21, 2000
Source: United States (US)
Launch site: AIR FORCE WESTERN TEST RANGE (AFWTR)

Note: This is SATELLITE DEBRIS
aabbcc
Your satellite tracking list
Your tracking list is empty




NASA's NSSDC Master Catalog

Two Line Element Set (TLE):
1 41162U 00055CV  19316.96090229 +.00000687 +00000-0 +41298-3 0  9999
2 41162 098.8386 021.3859 0037375 224.9816 134.8325 14.09823507202978
Source of the keplerian elements: AFSPC